North Las Vegas, NV

9:29 AM PDT on June 21, 2018 (GMT -0700)
North Las Vegas

Weather History for KVGT - August, 2017

Change the Weather History Date:

Sunday, August 13, 2017

  Actual Average Record
Temperature  
Mean Temperature 87 °F 90 °F  
Max Temperature 104 °F 102 °F 110 °F (2002)
Min Temperature 70 °F 78 °F 70 °F (2017)
Degree Days  
Heating Degree Days 0 0  
Month to date heating degree days 0 0  
Since 1 July heating degree days 0 0  
Cooling Degree Days 22 25  
Month to date cooling degree days 319 333  
Year to date cooling degree days 2542 2229  
Growing Degree Days 36 (Base 50)    
Moisture  
Dew Point 39 °F    
Average Humidity 36    
Maximum Humidity 66    
Minimum Humidity 5    
Precipitation  
Precipitation 0.00 in 0.02 in 0.07 in (2014)
Month to date precipitation 0.09 0.17  
Year to date precipitation 2.51 3.28  
Sea Level Pressure  
Sea Level Pressure 29.80 in    
Wind  
Wind Speed 9 mph (SSW)    
Max Wind Speed 22 mph    
Max Gust Speed 26 mph    
Visibility 10 miles    
Events      
T = Trace of Precipitation, MM = Missing Value Source: NWS Daily Summary

Daily Weather History Graph

Daily Weather History Graph

Search for Another Location

Airport or City:

Astronomy

Aug. 13, 2017 Rise Set
Actual Time 5:57 AM PDT 7:32 PM PDT
Civil Twilight 5:30 AM PDT 8:00 PM PDT
Nautical Twilight 4:57 AM PDT 8:33 PM PDT
Astronomical Twilight 4:22 AM PDT 9:07 PM PDT
Moon 11:21 PM PDT (8/13) 11:51 AM PDT (8/13)
Length of Visible Light 14h 30m
Length of Day
13h 35m
Waning Gibbous, 64% of the Moon is Illuminated
Aug 13
Waning Gibbous
Aug 14
Last Quarter
Aug 21
New
Aug 29
First Quarter
Sep 6
Full

Hourly Weather History & Observations

Time (PDT) Temp. Heat Index Dew Point Humidity Pressure Visibility Wind Dir Wind Speed Gust Speed Precip Events Conditions
12:53 AM 88.0 °F 86.7 °F 57.0 °F 35% 29.82 in 10.0 mi Calm Calm - N/A   Clear
1:53 AM 86.0 °F 85.0 °F 57.9 °F 38% 29.81 in 10.0 mi South 4.6 mph - N/A   Clear
2:53 AM 84.9 °F 84.2 °F 57.9 °F 40% 29.83 in 10.0 mi WSW 3.5 mph - N/A   Clear
3:53 AM 84.0 °F 83.5 °F 57.9 °F 41% 29.83 in 10.0 mi South 3.5 mph - N/A   Clear
4:53 AM 70.0 °F - 57.9 °F 65% 29.85 in 10.0 mi Calm Calm - N/A   Clear
5:53 AM 80.1 °F 80.7 °F 59.0 °F 48% 29.86 in 10.0 mi Calm Calm - N/A   Clear
6:53 AM 81.0 °F 81.3 °F 59.0 °F 47% 29.88 in 10.0 mi SE 3.5 mph - N/A   Partly Cloudy
7:53 AM 84.9 °F - 50.0 °F 30% 29.89 in 10.0 mi East 6.9 mph - N/A   Clear
8:53 AM 89.1 °F - 39.9 °F 18% 29.90 in 10.0 mi SE 11.5 mph - N/A   Clear
9:53 AM 93.0 °F - 37.9 °F 15% 29.89 in 10.0 mi South 9.2 mph - N/A   Clear
10:53 AM 96.1 °F - 39.0 °F 14% 29.88 in 10.0 mi SSW 15.0 mph 20.7 mph N/A   Clear
11:53 AM 97.0 °F - 50.0 °F 20% 29.87 in 10.0 mi South 10.4 mph 18.4 mph N/A   Clear
12:53 PM 98.1 °F - 41.0 °F 14% 29.84 in 10.0 mi South 9.2 mph 21.9 mph N/A   Clear
1:53 PM 100.9 °F - 41.0 °F 13% 29.81 in 10.0 mi South 15.0 mph 19.6 mph N/A   Clear
2:53 PM 102.0 °F - 37.9 °F 11% 29.76 in 10.0 mi SW 15.0 mph 19.6 mph N/A   Clear
3:53 PM 102.0 °F - 37.9 °F 11% 29.74 in 10.0 mi West 12.7 mph - N/A   Clear
4:53 PM 102.9 °F - 28.9 °F 7% 29.73 in 10.0 mi WSW 16.1 mph 20.7 mph N/A   Clear
5:53 PM 100.9 °F - 17.1 °F 5% 29.72 in 10.0 mi West 16.1 mph - N/A   Clear
6:53 PM 99.0 °F - 15.1 °F 5% 29.71 in 10.0 mi WSW 16.1 mph 21.9 mph N/A   Clear
7:53 PM 96.1 °F - 18.0 °F 6% 29.72 in 10.0 mi SW 9.2 mph - N/A   Clear
8:53 PM 93.9 °F - 19.0 °F 7% 29.73 in 10.0 mi SSW 8.1 mph - N/A   Clear
9:53 PM 91.0 °F - 21.9 °F 8% 29.73 in 10.0 mi SW 6.9 mph - N/A   Clear
10:53 PM 90.0 °F - 19.0 °F 7% 29.72 in 10.0 mi West 6.9 mph - N/A   Clear
11:53 PM 89.1 °F - 19.0 °F 8% 29.73 in 10.0 mi SW 8.1 mph - N/A   Clear